Location: Coupvray
(48.8929°N, 2.7967°E)
Time: 21:22:20
(UTC+00:00)

X-37B - Pass Details

Date: 07 October 2020
Orbit: 382 x 392 km, 45.0° (Epoch: 15 October)

Event Time Altitude Azimuth Distance (km) Brightness Sun altitude
Rises 19:03:55 0° 255° (WSW) 2,265 5.6 -18.7°
Reaches altitude 10° 19:06:03 10° 248° (WSW) 1,409 4.2 -19.1°
Enters shadow 19:08:40 38° 197° (SSW) 605 1.5 -19.5°
